Location: Balsareny
(41.8670°N, 1.8830°E)
Time: 00:59:59
(UTC+02:00)

X-37B - Pass Details

Date: 24 June 2021
Orbit: 383 x 392 km, 45.0° (Epoch: 01 July)

Event Time Altitude Azimuth Distance (km) Brightness Sun altitude
Rises 00:04:25 0° 259° (W) 2,250 4.7 -19.9°
Reaches altitude 10° 00:06:30 10° 263° (W) 1,398 3.6 -20.1°
Maximum altitude 00:09:37 64° 345° (NNW) 427 0.9 -20.3°
Enters shadow 00:10:00 57° 27° (NNE) 456 1.0 -20.4°
